Date,TemperatureHighF,TemperatureAvgF,TemperatureLowF,DewpointHighF,DewpointAvgF,DewpointLowF,HumidityHigh,HumidityAvg,HumidityLow,PressureMaxIn,PressureMinIn,WindSpeedMaxMPH,WindSpeedAvgMPH,GustSpeedMaxMPH,PrecipitationSumIn
2013-8-1,75.4,63.6,55.7,0.0,0.0,0.0,0,0,100,0.00,0.00,8,3,10,0.00
2013-8-2,64.2,60.8,58.1,0.0,0.0,0.0,0,0,100,0.00,0.00,6,2,9,0.00
2013-8-3,87.3,68.5,58.4,0.0,0.0,0.0,0,0,100,0.00,0.00,7,2,9,0.00
2013-8-4,87.2,71.4,55.0,0.0,0.0,0.0,0,0,100,0.00,0.00,10,3,12,0.00
2013-8-5,96.6,75.1,57.5,0.0,0.0,0.0,0,0,100,0.00,0.00,8,2,9,0.00
2013-8-6,97.4,73.6,53.9,0.0,0.0,0.0,0,0,100,0.00,0.00,7,2,9,0.00
2013-8-7,95.4,74.0,54.3,0.0,0.0,0.0,0,0,100,0.00,0.00,8,2,10,0.00
2013-8-8,93.9,72.1,57.2,0.0,0.0,0.0,0,0,100,0.00,0.00,7,2,9,0.00
2013-8-9,92.0,72.7,56.5,0.0,0.0,0.0,0,0,100,0.00,0.00,8,2,9,0.00
2013-8-10,90.6,69.5,58.9,0.0,0.0,0.0,0,0,100,0.00,0.00,8,2,10,0.00
2013-8-11,88.7,70.0,56.4,0.0,0.0,0.0,0,0,100,0.00,0.00,7,3,8,0.00
2013-8-12,89.6,71.1,56.9,0.0,0.0,0.0,0,0,100,0.00,0.00,7,2,10,0.00
2013-8-13,92.4,72.4,55.0,0.0,0.0,0.0,0,0,100,0.00,0.00,8,2,9,0.00
2013-8-14,93.7,69.5,55.0,0.0,0.0,0.0,0,0,100,0.00,0.00,7,2,8,0.00
2013-8-15,76.8,66.8,59.8,0.0,0.0,0.0,0,0,100,0.00,0.00,5,1,7,0.00
2013-8-16,96.0,75.3,58.9,0.0,0.0,0.0,0,0,100,0.00,0.00,6,2,7,0.00
2013-8-17,91.7,73.1,60.5,0.0,0.0,0.0,0,0,100,0.00,0.00,8,3,10,0.00
2013-8-18,90.6,72.0,58.1,0.0,0.0,0.0,0,0,100,0.00,0.00,9,3,10,0.00
2013-8-19,91.1,71.3,56.9,0.0,0.0,0.0,0,0,100,0.00,0.00,10,3,12,0.00
2013-8-20,84.8,68.4,58.9,0.0,0.0,0.0,0,0,100,0.00,0.00,9,4,12,0.00
2013-8-21,85.7,70.5,55.3,0.0,0.0,0.0,0,0,100,0.00,0.00,10,4,14,0.00
2013-8-22,92.3,74.4,56.2,0.0,0.0,0.0,0,0,100,0.00,0.00,8,2,10,0.00
2013-8-23,86.7,70.0,60.8,0.0,0.0,0.0,0,0,100,0.00,0.00,10,3,11,0.00
2013-8-24,93.3,69.6,59.3,0.0,0.0,0.0,0,0,100,0.00,0.00,7,2,8,0.00
2013-8-25,83.9,67.3,55.8,0.0,0.0,0.0,0,0,100,0.00,0.00,7,2,7,0.00
2013-8-26,88.1,68.1,59.7,0.0,0.0,0.0,0,0,100,0.00,0.00,10,2,12,0.00
2013-8-27,91.6,72.0,60.6,0.0,0.0,0.0,0,0,100,0.00,0.00,8,2,10,0.00
2013-8-28,92.3,72.9,58.3,0.0,0.0,0.0,0,0,100,0.00,0.00,6,1,7,0.00
2013-8-29,85.0,68.2,62.6,0.0,0.0,0.0,0,0,100,0.00,0.00,9,2,10,0.00
2013-8-30,91.8,72.4,59.7,0.0,0.0,0.0,0,0,100,0.00,0.00,8,3,10,0.00
2013-8-31,84.9,69.1,54.3,0.0,0.0,0.0,0,0,100,0.00,0.00,10,2,12,0.00